This is the latest recevied weather packets stored in our database for station/object KC1TWD. If no packets are shown the sender has not sent any weather packets the latest 10 day(s).
| Time | Temp. | Humidity | Pressure | Rain* | Wind** | Luminosity | Snow |
|---|---|---|---|---|---|---|---|
| 1777670763 | 14.44° C | 33% | 1009 hPa | 0 mm | - | - | - |
| 1777670460 | 14.44° C | 35% | 1009.2 hPa | 0 mm | - | - | - |
| 1777670156 | 14.44° C | 35% | 1009 hPa | 0 mm | - | - | - |
| 1777669855 | 14.44° C | 33% | 1008.8 hPa | 0 mm | - | - | - |
| 1777669550 | 14.44° C | 34% | 1008.8 hPa | 0 mm | - | - | - |
| 1777669247 | 14.44° C | 33% | 1008.7 hPa | 0 mm | - | - | - |
| 1777668944 | 14.44° C | 33% | 1008.7 hPa | 0 mm | - | - | - |
| 1777668642 | 15° C | 32% | 1008.6 hPa | 0 mm | - | - | - |
| 1777668338 | 15° C | 32% | 1008.5 hPa | 0 mm | - | - | - |
| 1777668034 | 15° C | 32% | 1008.6 hPa | 0 mm | - | - | - |
| 1777667731 | 15.56° C | 33% | 1009 hPa | 0 mm | - | - | - |
| 1777667429 | 15° C | 33% | 1008.3 hPa | 0 mm | - | - | - |
| 1777667125 | 15° C | 32% | 1008.7 hPa | 0 mm | - | - | - |
| 1777666821 | 15.56° C | 31% | 1008.7 hPa | 0 mm | - | - | - |
| 1777666519 | 15.56° C | 32% | 1008.8 hPa | 0 mm | - | - | - |
| 1777666215 | 16.11° C | 30% | 1008.7 hPa | 0 mm | - | - | - |
| 1777665913 | 15.56° C | 31% | 1008.7 hPa | 0 mm | - | - | - |
| 1777665610 | 15° C | 33% | 1008.8 hPa | 0 mm | - | - | - |
| 1777665307 | 15.56° C | 32% | 1009 hPa | 0 mm | - | - | - |
| 1777665002 | 15.56° C | 35% | 1008.8 hPa | 0 mm | - | - | - |
| 1777664698 | 15° C | 33% | 1008.7 hPa | 0 mm | - | - | - |
| 1777664394 | 14.44° C | 35% | 1009 hPa | 0 mm | - | - | - |
| 1777664092 | 15.56° C | 34% | 1009.1 hPa | 0 mm | - | - | - |
| 1777663790 | 16.11° C | 31% | 1009 hPa | 0 mm | - | - | - |
| 1777663487 | 16.11° C | 33% | 1009.2 hPa | 0 mm | - | - | - |
* Rain latest hour (hover to see other rain measurements)
** Current wind speed in m/s (hover to see current wind gust speed)